Weather Roundup
Issued by NWS

Home | Current Version | Previous Version | Text Only | Print | Product List | Glossary On
Versions: 1 2 3 4 5 6 7 8 9 10 11 12 13 14 15 16 17 18 19 20 21 22 23 24 25 26 27 28 29 30 31 32 33 34 35 36 37 38 39 40 41 42 43 44 45 46 47 48 49 50
000
NZUS93 KARX 300610
HRRWXR

CURRENT HOURLY OBSERVATIONS ACROSS
MUCH OF THE UPPER MISSISSIPPI VALLEY
NATIONAL WEATHER SERVICE LA CROSSE WI
1200 AM CST FRI JAN 30 2015


...SOUTHEAST MINNESOTA...


CITY           SKY/WX    TMP DP  RH WIND       PRES   REMARKS
ROCHESTER      CLEAR     13   6  74 N15       30.48R WCI  -3
ROCHESTER/MAYO FAIR      15   6  68 NW9       30.50R WCI   3
WINONA         CLEAR     19  10  68 NW12      30.52R WCI   7
AUSTIN         CLEAR     18   9  68 N9G17     30.49R WCI   6
ALBERT LEA     CLEAR     18  12  79 NW9       30.50R WCI   6
DODGE CENTER   PTCLDY    14   9  79 N6        30.49S WCI   5
PRESTON        CLEAR     14   8  76 N10       30.48R WCI   1
OWATONNA       CLEAR     16   9  73 NW6       30.52R WCI   7
FARIBAULT      CLEAR     16   9  73 NW6       30.53R WCI   7
$$

...ELSEWHERE IN MINNESOTA...


CITY           SKY/WX    TMP DP  RH WIND       PRES   REMARKS
MINNEAPOLIS    CLEAR     15   5  64 NW8       30.55R WCI   4
INTNL FALLS    PTCLDY   -15 -20  78 W3        30.49S
DULUTH         MOCLDY     5  -2  72 N6        30.44S WCI  -6
RED WING       CLEAR     12   5  73 NW5       30.53R WCI   4
REDWOOD FALLS  CLEAR     15   9  76 NW8       30.58R WCI   4
MANKATO        CLEAR     16   9  73 NW13      30.54R WCI   2
WORTHINGTON    CLOUDY    19  12  73 N12       30.53S WCI   7
FAIRMONT       CLEAR     16  10  79 NW13      30.54R WCI   2
$$

...SOUTHWEST WISCONSIN...


CITY           SKY/WX    TMP DP  RH WIND       PRES   REMARKS
LA CROSSE      MOCLDY    20   9  62 N12       30.48R WCI   8
PRAIRIE DU CHI PTCLDY    24  10  56 N9        30.46R WCI  14
BOSCOBEL       CLOUDY    25  12  58 N14       30.45R WCI  13
LONE ROCK      CLOUDY    25  12  58 NW12      30.42R WCI  14
PLATTEVILLE    MOCLDY    24  14  67 NW10      30.39R WCI  13
FORT MC COY    CLOUDY    19  10  65 NW12      30.46R WCI   7
CAMP DOUGLAS   PTCLDY    19   9  64 NW14G20   30.43R WCI   5
VIROQUA        CLOUDY    20  11  68 N15       30.41R WCI   6
WIS DELLS      PTCLDY    21   9  59 N9G16     30.39R WCI  11
$$

...ELSEWHERE IN WISCONSIN...


CITY           SKY/WX    TMP DP  RH WIND       PRES   REMARKS
MILWAUKEE      MOCLDY    26   8  46 N18G28    30.33R WCI  13
MADISON        CLOUDY    26  13  57 N8        30.37R WCI  18
GREEN BAY      CLOUDY    21  12  68 N13       30.37R WCI   9
EAU CLAIRE     CLEAR     12   3  67 NW7       30.49R WCI   1
BLACK RVR FLS  MOCLDY    18   7  61 NW7       30.46R WCI   8
MEDFORD        CLOUDY    14   6  69 N12       30.38R WCI   1
WAUSAU         CLOUDY    17   5  59 N12G18    30.37R WCI   4
WIS RAPIDS     CLOUDY    20   8  60 NW9       30.41R WCI   9
MARSHFIELD     CLOUDY    17   6  62 NW12      30.39R WCI   4
RICE LAKE      CLEAR      9   1  71 NW5       30.50R WCI   1
$$

...NORTHEAST IOWA...


CITY           SKY/WX    TMP DP  RH WIND       PRES   REMARKS
DECORAH        PTCLDY    18  10  73 NW13      30.45R WCI   4
MASON CITY     CLEAR     17  12  80 NW14      30.52R WCI   3
CHARLES CITY   PTCLDY    19  16  86 NW15      30.48S WCI   5
OELWEIN        CLEAR     21  14  73 NW13      30.46R WCI   9
$$

...ELSEWHERE IN IOWA...


CITY           SKY/WX    TMP DP  RH WIND       PRES   REMARKS
DES MOINES     PTCLDY    25  18  74 N10       30.53R WCI  15
IOWA CITY      PTCLDY    26  16  65 NW8       30.48R WCI  18
FORT DODGE     CLEAR     19  12  73 N9        30.55R WCI   9
$$

...NORTHERN ILLINOIS...


CITY           SKY/WX    TMP DP  RH WIND       PRES   REMARKS
CHICAGO-OHARE  CLOUDY    29  22  75 N15       30.31R WCI  18
CHICAGO-MIDWAY FLURRIES  32  23  69 N14       30.31R WCI  22
MOLINE         PTCLDY    27  18  69 NW12      30.43R WCI  17
ROCKFORD       FLURRIES  29  17  61 N12       30.37R WCI  19
PEORIA         CLOUDY    32  20  61 NW9G21    30.40R WCI  24
$$

NOTE: "FAIR" INDICATES FEW OR NO CLOUDS BELOW 12,000 FEET WITH NO
SIGNIFICANT WEATHER AND/OR OBSTRUCTIONS TO VISIBILITY. WIND
SPEEDS ARE IN MILES-PER-HOUR.



USA.gov is the U.S. government's official web portal to all federal, state and local government web resources and services.